Regional Weather Roundup
Issued by NWS

Home | Current Version | Previous Version | Graphics & Text | Print | Product List | Glossary Off
Versions: 1 2 3 4 5 6 7 8 9 10 11 12 13 14 15 16 17 18 19 20 21 22 23 24 25 26 27 28 29 30 31 32 33 34 35 36 37 38 39 40 41 42 43 44 45 46 47 48 49 50

000
ASUS43 KDMX 310203
RWRIA

WEATHER ROUNDUP FOR IOWA
NATIONAL WEATHER SERVICE DES MOINES IA
900 PM CDT MON MAY 30 2016

NOTE: "FAIR" INDICATES FEW OR NO CLOUDS BELOW 12,000 FEET WITH NO
SIGNIFICANT WEATHER AND/OR OBSTRUCTIONS TO VISIBILITY.

* - THESE STATIONS ARE NOT NWS STATIONS...THUS NOT UNDER NWS
QUALITY CONTROL.  THEY ALSO DO NOT REPORT WEATHER SUCH
AS PRECIPITATION OR FOG.

IAZ001>003-012>014-020>022-031>034-043>046-310300-
   NORTHWEST IOWA

CITY           SKY/WX    TMP DP  RH WIND       PRES   REMARKS
CARROLL *      CLOUDY    72  57  60 S18G25    29.89S
CHEROKEE *     CLOUDY    72  57  58 S10       29.85S
DENISON *      CLOUDY    68  59  73 S12G23    29.88S
LE MARS *      CLOUDY    70  63  78 S9        29.83S
ORANGE CITY *  LGT RAIN  72  61  68 S20G25    29.84R
SHELDON *      PTCLDY    72  59  64 S20G28    29.82R
SIOUX CITY     PTCLDY    73  61  65 SE16      29.83S
SPENCER        CLOUDY    74  54  49 SW16G25   29.84R
STORM LAKE *   MOCLDY    72  57  60 S18       29.86S
$$

IAZ055>058-069>071-079>083-090>094-310300-
   SOUTHWEST IOWA

CITY           SKY/WX    TMP DP  RH WIND       PRES   REMARKS
ATLANTIC *     CLOUDY    68  57  68 S18G24    29.91F
AUDUBON *      CLOUDY    70  57  64 S14       29.92F
CLARINDA *       N/A     64  63  94 MISG      29.94F
COUNCIL BLFS * MOCLDY    66  61  82 SE15G22   29.91S
CRESTON *      CLOUDY    68  57  68 SW12      29.96F
HARLAN  *      CLOUDY    70  57  64 S21       29.92F
LAMONI         PTCLDY    68  60  75 W6        29.96S
RED OAK *      CLOUDY    66  59  77 S5        29.91F
SHENANDOAH *   CLOUDY    66  64  94 SE14      29.92F
$$

IAZ047>049-059>061-072>074-084-310300-
   CENTRAL IOWA

CITY           SKY/WX    TMP DP  RH WIND       PRES   REMARKS
AMES           TSTM      65  62  90 E6        29.94R
ANKENY *       CLOUDY    75  59  57 SW15      29.91S
BOONE *          N/A     70  61  73 SE8G15    29.92R
CHARITON *     CLOUDY    70  63  78 S9G18     29.94F
DES MOINES     CLOUDY    76  54  46 SW15      29.92R
GRINNELL*      CLOUDY    75  61  60 S6        29.93S
KNOXVILLE *    CLOUDY    75  61  60 SW13G21   29.93R
MARSHALLTOWN   LGT RAIN  70  59  68 W13G22    29.93R
NEWTON *       CLOUDY    75  61  60 SW12      29.92S
PELLA *        CLOUDY    75  63  66 S5        29.94R
PERRY *        CLOUDY    69  64  84 SW7       29.90F
$$

IAZ004>006-015-016-023>025-035-036-310300-
   NORTH CENTRAL IOWA

CITY           SKY/WX    TMP DP  RH WIND       PRES   REMARKS
ALGONA *       CLOUDY    66  61  82 SE20      29.90F
CLARION *      CLOUDY    68  57  68 SE13G20   29.92R
ESTHERVILLE    PTCLDY    71  59  65 SE28      29.86R
FORT DODGE *   CLOUDY    70  54  56 SE9G16    29.91R
MASON CITY     LGT RAIN  66  62  87 CALM      29.96S
FOREST CITY *  LGT RAIN  64  61  88 S8        29.94F
WEBSTER CITY * LGT RAIN  63  61  94 E10G22    29.92F
IOWA FALLS *   LGT RAIN  68  57  68 S25G32    29.94F
$$

IAZ007>011-017>019-026>030-037>042-050>054-066-310300-
   NORTHEAST IOWA

CITY           SKY/WX    TMP DP  RH WIND       PRES   REMARKS
CEDAR RAPIDS   CLOUDY    72  69  90 S6        29.92S
CHARLES CITY * LGT RAIN  66  64  94 N9G17     29.95F
CLINTON *      PTCLDY    77  61  57 S5        29.95S
DECORAH *      CLOUDY    73  54  49 SE6       29.94S
DUBUQUE        PTCLDY    71  55  56 E7        29.96S
MONTICELLO *   CLOUDY    75  61  60 E5        29.93S
OELWEIN *      CLOUDY    66  61  82 NW17G25   29.97R
WATERLOO       TSTM      65  60  84 S12G30    29.94R
$$

IAZ064-065-067-068-078-310300-
   EAST CENTRAL IOWA

CITY           SKY/WX    TMP DP  RH WIND       PRES   REMARKS
DAVENPORT      CLOUDY    76  61  59 S6        29.95S
IOWA CITY      PTCLDY    79  63  57 S6        29.94R HX  80
MT. PLEASANT * PTCLDY    77  66  69 S6        29.94F
MUSCATINE *    CLEAR     75  66  73 S7        29.94S
QUAD CITIES    MOCLDY    76  63  64 CALM      29.93S
$$

IAZ062-063-075>077-085>089-095>099-310300-
   SOUTHEAST IOWA

CITY           SKY/WX    TMP DP  RH WIND       PRES   REMARKS
BURLINGTON     PTCLDY    75  65  70 S5        29.94F
FAIRFIELD *      N/A    N/A N/A N/A MISG        N/A
FORT MADISON * PTCLDY    75  66  73 S3        29.96S
KEOKUK *       MOCLDY    77  64  65 S5        29.94S
OSKALOOSA *      N/A     75  64  69 S9        29.94R
OTTUMWA        CLOUDY    73  65  75 S6        29.93S
WASHINGTON *   CLEAR     73 -36   1 S7        29.95S
$$

ABBREVIATIONS USED IN REMARKS
   TC - TEMPERATURES IN CELSIUS
  WCI - WIND CHILL INDEX
   HX - HEAT INDEX
  VSB - VISIBILITY
$$





USA.gov is the U.S. government's official web portal to all federal, state and local government web resources and services.